STARLINK-1954, 47555

Orbit data source: Space-Track

STARLINK-1954, 47555 is a payload satellite owned by SpaceX/Seattle (US) in LEO that was launched on Thu, 04 Feb 2021 UTC via an FALCON 9 launch vehicle from the Air Force Eastern Test Range (AFETR). Payload-class satellites include a variety of spacecraft equipped with specific instruments for various scientific and technological missions. These include communications satellites like Starlink; space stations such as the ISS; scientific satellites like the Hubble; Earth observation satellites from companies like Planet Labs, Umbra, and HawkEye 360; GPS; miniature CubeSats for education and research; and military/defense satellites.

Loading next visibility...
Identifier
47555, 2021-009H
Orbit
LEO
Country
Flag of USUS
Related business
Manufacturer
SpaceX/Seattle
Mission
Partially operational Commercial Communications
Bus & Motor
STARLINK, Unknown motor
Mass
260 kg wet, ~248 kg dry
Launch date (UTC)
2021-02-04 (5 years ago)
Launch vehicle
FALCON 9
Launch site
Air Force Eastern Test Range (AFETR)
Object type
Payload
Rocket body
Debris
Shape & HBR
Box + 1 Pan, 10.1 m
Radar Cross Section
13.562 m², Large (>1 m²)

Expand to show TLE details & history
Last TLE update: 2 days ago

TLE from 2 days ago
0 STARLINK-1954
1 47555U 21009H   26171.43115392  .00045943  00000-0  10767-2 0  9991
2 47555  53.0490 247.3040 0002557 346.9906  13.1031 15.41654119296750
Epoch: 2026-06-20T10:20Z
TLE epoch observation values (Epoch: 2026-06-20T10:20:51.698Z)
Latitude
-0.00011°
Longitude
-176.55736°
Altitude
440.421 km
Speed
7.65 km/s
True Right ascension
16h 29m 12s
True Declination
0° 00' 00"
Sunlit
Object was in full shadow at epoch
Visualization orbit readout
Latitude
Unknown
Longitude
Unknown
Altitude
Unknown
Speed
Unknown
Apparent Right ascension
Unknown
Apparent Declination
Unknown
Sunlit
N/A
Visualization observer readout
Local Sidereal Time
21:38:29
Azimuth
Unknown
Elevation
Unknown
Doppler factor
Unknown
Orbital elements
Apogee altitude
443.247 km
Perigee altitude
439.759 km
Semi-major axis
6,819.64 km
Eccentricity
0.00026
Inclination
53.049°
RAAN
247.304°
Arg. of periapsis
346.9906°
True anomaly
13.10974°
Mean anomaly
13.1031°
Eccentric anomaly
13.10642°
Mean motion
3.85391 °/min
Orbital period
93.41 mins
BSTAR
0.0010767
Loading maneuver chart data...
Computing Atmospheric mass density...

Documentation

Showing up to 5 results
|